Weather Roundup
Issued by NWS Chicago, IL

Home | Current Version | Previous Version | Text Only | Print | Product List | Glossary Off
Versions: 1 2 3 4 5 6 7 8 9 10 11 12 13 14 15 16 17 18 19 20 21 22 23 24 25 26 27 28 29 30 31 32 33 34 35 36 37 38 39 40 41 42 43 44 45 46 47 48 49 50

000
NZUS59 KLOT 200409
HRRLOT

CHICAGO AREA WEATHER ROUNDUP
NATIONAL WEATHER SERVICE CHICAGO/ROMEOVILLE IL
1100 PM CDT SAT AUG 19 2017

NOTE: "FAIR" INDICATES FEW OR NO CLOUDS BELOW 12,000 FEET WITH NO
SIGNIFICANT WEATHER AND/OR OBSTRUCTIONS TO VISIBILITY.

* THESE STATIONS ARE NOT UNDER NWS QUALITY CONTROL. THEY ALSO MAY NOT
  REPORT WEATHER SUCH AS PRECIPITATION OR FOG.

ILZ005-006-012>014-019>023-200500-
NORTHEAST ILLINOIS

CITY           SKY/WX    TMP DP  RH WIND       PRES   REMARKS
OHARE          CLEAR     71  54  54 SE3       29.98R
MIDWAY         CLEAR     74  54  49 S5        29.98R
AURORA         CLEAR     61  61 100 CALM      29.99R FOG
LANSING*       CLEAR     66  55  67 CALM      29.99S
JOLIET*        CLEAR     64  62  91 CALM      29.99S
WAUKEGAN       CLEAR     63  60  90 CALM      29.98R
DUPAGE AIRPORT CLEAR     66  62  87 CALM      29.99R
WHEELING       CLEAR     67  60  78 CALM      30.00R
MORRIS*        CLEAR     65  62  90 CALM      29.98S
LEWIS AIRPORT* CLEAR     66  58  75 SE3       29.99S
NORTHERLY ISL    N/A     72  60  66 SE7         N/A
$$

WIZ051-052-058>065-066-070>072-200500-
SOUTHEAST WISCONSIN

CITY           SKY/WX    TMP DP  RH WIND       PRES   REMARKS
MILWAUKEE      CLEAR     70  63  78 SW5       29.98R
KENOSHA*       CLEAR     67  57  70 S5        29.99R
RACINE*        CLEAR     66  61  84 S3        30.00R
WAUKESHA       CLEAR     63  59  88 CALM      30.00R
WEST BEND      CLEAR     63  61  94 CALM      29.98S
$$

INZ001>003-010>013-019-020-200500-
NORTHWEST INDIANA

CITY           SKY/WX    TMP DP  RH WIND       PRES   REMARKS
GARY*          CLEAR     60  56  87 CALM      29.99S
MICHIGAN CITY* NOT AVBL
RENSSELAER*    NOT AVBL
VALPARAISO     CLEAR     63  59  87 NE3       30.00R
$$

LMZ740>746-200500-
SOUTHERN LAKE MICHIGAN

STATION/POSITION TIME  SKY/WX   TEMP WIND        PRES    VSBY
                                AIR  DIR/SP/G
                 (UTC)          (F)  (DEG/KT/KT) (MB)    (MI)
HARRISON CRIB    0340            75  160/  8/  9   N/A
BURNHAM HARBOR   NOT AVBL
CALUMET HARBOR   0348            73  180/  4/  5 1014.9R
BURNS HARBOR     0340            73  110/  5/  6 1015.9R
MICHIGAN CITY    0340            68  110/  4/  4   N/A
$$

ABBREVIATIONS USED IN REMARKS
   TC - TEMPERATURE IN CELSIUS
  WCI - WIND CHILL INDEX
   HX - HEAT INDEX
  VSB - VISIBILITY
$$




USA.gov is the U.S. government's official web portal to all federal, state and local government web resources and services.